DateTimeUTC,F1_A11,F1_S11,BsB_S11,BsG_S11,BsR_S11,BbsB_S11,BbsG_S11,BbsR_S11,BaB_A11,BaG_A11,BaR_A11,Tu_S11,T_S11,Uu_S11,U_S11,P_S11,T1_A11
2021-07-04T14:00:00Z,00000200,20000000,,,,,,,-000.06,0000.34,0000.00,19.0,25.5,09.0,06.1,0670.8,31.1
2021-07-04T14:01:00Z,00000200,20000000,,,,,,,0000.43,-000.02,0000.33,19.0,25.5,09.1,06.1,0670.8,31.1
2021-07-04T14:02:00Z,00000200,20000000,,,,,,,-000.15,0000.05,-000.24,19.0,25.5,09.1,06.1,0670.8,31.1
2021-07-04T14:03:00Z,00000200,60000000,,,,,,,0000.53,-000.06,0000.24,19.0,25.5,09.1,06.1,0670.8,31.1
2021-07-04T14:04:00Z,00000200,40000000,0000.46,0000.31,0000.57,0000.52,-000.05,0000.15,-000.21,-000.11,0000.09,19.1,25.3,09.2,06.3,0671.7,31.1
2021-07-04T14:05:00Z,00000200,00000000,0000.52,0000.42,0000.38,-000.09,0000.04,0000.19,0000.19,0000.30,-000.05,19.1,25.3,09.3,06.4,0671.8,31.1
2021-07-04T14:06:00Z,00000200,00000000,0000.89,0000.55,0000.27,0000.40,-000.13,-000.26,0000.24,0000.15,0000.19,19.2,25.3,09.3,06.4,0671.8,31.1
2021-07-04T14:07:00Z,00000200,00000000,0000.62,0000.51,0000.28,0000.35,0000.01,0000.09,-000.16,-000.00,-000.22,19.2,25.3,09.4,06.5,0671.8,31.1
2021-07-04T14:08:00Z,00000200,00000000,0001.40,0000.36,0000.24,-000.34,-000.18,0000.24,0000.32,0000.30,0000.46,19.2,25.3,09.4,06.5,0671.8,31.1
2021-07-04T14:09:00Z,00000200,00000000,0000.81,0000.59,0000.37,-000.30,0000.23,0000.16,-000.07,0000.38,0000.09,19.2,25.3,09.4,06.4,0671.8,31.1
2021-07-04T14:10:00Z,00000200,00000000,0000.42,0000.57,0000.20,-000.19,0000.17,0000.08,0000.29,-000.22,0000.08,19.2,25.2,09.5,06.5,0671.8,31.1
2021-07-04T14:11:00Z,00000200,00000000,0000.92,0000.41,0000.24,-000.12,-000.05,-000.04,-000.03,0000.15,-000.09,19.1,25.2,09.5,06.5,0671.8,31.1
2021-07-04T14:12:00Z,00000200,00000000,0000.72,0000.73,0000.24,0000.13,-000.02,0000.36,0000.20,0000.22,0000.18,19.2,25.2,09.5,06.6,0671.7,31.1
2021-07-04T14:13:00Z,00000200,00000000,0000.80,0000.70,0000.61,0000.16,0000.06,0000.24,-000.08,-000.12,-000.07,19.2,25.2,09.3,06.4,0671.7,31.1
2021-07-04T14:14:00Z,00000200,00000000,-000.05,0000.97,0000.86,0000.00,-000.17,0000.10,0000.52,0000.40,0000.19,19.1,25.2,09.3,06.4,0671.8,31.1
2021-07-04T14:15:00Z,00000200,00000000,0000.66,0000.51,0000.41,-000.37,0000.14,0000.35,0000.08,0000.09,0000.12,19.2,25.2,09.5,06.6,0671.8,31.1
2021-07-04T14:16:00Z,00000200,00000000,0000.77,0000.83,0000.38,0000.40,0000.09,0000.28,0000.14,0000.17,0000.14,19.2,25.2,09.5,06.6,0671.7,31.1
2021-07-04T14:17:00Z,00000200,00000000,0000.79,0000.80,0000.33,-000.11,0000.07,-000.04,-000.10,-000.31,-000.00,19.2,25.2,09.5,06.6,0671.7,31.1
2021-07-04T14:18:00Z,00000200,00000000,0000.52,0000.49,0000.44,0000.17,0000.01,0000.37,0000.02,0000.48,-000.05,19.2,25.2,09.3,06.4,0671.7,31.1
2021-07-04T14:19:00Z,00000200,00000000,0000.63,0000.59,0000.39,0000.25,0000.04,0000.31,0000.37,0000.08,0000.53,19.2,25.2,09.5,06.5,0671.8,31.1
2021-07-04T14:20:00Z,00000200,00000000,0000.30,0000.57,0000.28,-000.07,0000.07,0000.19,-000.09,0000.06,-000.25,19.2,25.2,09.4,06.5,0671.7,31.1
2021-07-04T14:21:00Z,00000200,00000000,0000.94,0000.52,0000.50,0000.79,0000.02,0000.20,0000.08,-000.16,0000.04,19.2,25.2,09.4,06.5,0671.7,31.1
2021-07-04T14:22:00Z,00000200,00000000,0000.54,0000.38,0000.27,0000.18,0000.06,-000.06,0000.59,0000.37,0000.29,19.2,25.2,09.4,06.5,0671.7,31.1
2021-07-04T14:23:00Z,00000200,00000000,0001.38,0000.32,0000.02,0000.12,0000.15,0000.25,0000.23,-000.07,0000.10,19.1,25.2,09.6,06.6,0671.8,31.1
2021-07-04T14:24:00Z,00000200,00000000,0000.80,0000.84,0000.13,0000.37,0000.12,0000.10,0000.19,0000.74,0000.17,19.1,25.2,09.6,06.6,0671.7,31.1
2021-07-04T14:25:00Z,00000200,00000000,0000.61,0000.47,0000.06,-000.46,-000.10,0000.06,-000.08,-000.28,0000.10,19.1,25.2,09.6,06.6,0671.7,31.1
2021-07-04T14:26:00Z,00000200,00000000,0001.47,0000.80,0000.29,0000.61,-000.04,0000.08,-000.03,0000.57,0000.28,19.2,25.2,09.4,06.5,0671.6,31.1
2021-07-04T14:27:00Z,00000200,00000000,0000.77,0000.21,0000.52,-000.27,-000.01,0000.32,0000.68,-000.14,0000.23,19.1,25.2,09.3,06.4,0671.7,31.1
2021-07-04T14:28:00Z,00000200,00000000,0001.01,0000.27,0000.49,0000.25,-000.12,-000.05,-000.30,0000.23,-000.48,19.1,25.2,09.6,06.6,0671.7,31.1
2021-07-04T14:29:00Z,00000200,00000000,0000.39,0000.71,0000.11,-000.20,0000.03,-000.07,0000.63,-000.15,0000.35,19.1,25.2,09.5,06.6,0671.6,31.1
2021-07-04T14:30:00Z,00000200,00000000,0001.05,0000.48,0000.59,0000.12,-000.04,0000.47,-000.18,0000.38,0000.55,19.1,25.2,09.5,06.6,0671.7,31.1
2021-07-04T14:31:00Z,00000200,00000000,0000.67,0000.60,0000.07,0000.33,0000.11,0000.01,0000.46,0000.27,0000.00,19.1,25.2,09.7,06.7,0671.7,31.1
2021-07-04T14:32:00Z,00000200,00000000,0000.98,0000.92,0000.27,0000.29,-000.24,0000.27,-000.42,-000.16,-000.19,19.1,25.2,09.5,06.6,0671.6,31.1
2021-07-04T14:33:00Z,00000200,00000000,0000.64,0000.90,0000.13,0000.14,-000.12,-000.14,0000.85,-000.06,0000.08,19.1,25.2,09.7,06.7,0671.7,31.1
2021-07-04T14:34:00Z,00000200,00000000,0001.20,0000.58,0000.32,0000.33,0000.11,0000.24,0000.02,0000.57,0000.42,19.1,25.2,09.6,06.7,0671.7,31.1
2021-07-04T14:35:00Z,00000200,00000000,0000.49,0000.61,0000.18,-000.37,0000.10,0000.05,-000.01,0000.34,0000.03,19.1,25.2,09.9,06.8,0671.7,31.1
2021-07-04T14:36:00Z,00000200,00000000,0000.74,0000.37,0000.28,0000.63,0000.15,-000.09,0000.17,-000.32,-000.33,19.1,25.2,10.0,06.9,0671.7,31.1
2021-07-04T14:37:00Z,00000200,00000000,0000.69,0000.18,0000.66,0000.19,0000.18,0000.24,0000.06,0000.32,0000.15,19.1,25.2,09.8,06.8,0671.7,31.1
2021-07-04T14:38:00Z,00000200,00000000,-000.11,0000.72,0000.17,0000.20,0000.04,0000.24,-000.25,-000.03,0000.19,19.1,25.2,09.8,06.8,0671.7,31.1
2021-07-04T14:39:00Z,00000200,00000000,0000.44,0000.53,0000.44,0000.20,0000.16,0000.21,0000.58,0000.34,0000.38,19.1,25.2,09.9,06.8,0671.7,31.1
2021-07-04T14:40:00Z,00000200,00000000,0000.71,0000.72,0000.30,0000.65,-000.07,0000.27,0000.34,0000.15,0000.11,19.1,25.2,09.7,06.7,0671.7,31.1
2021-07-04T14:41:00Z,00000200,00000000,0000.46,0000.72,0000.03,0000.25,0000.01,0000.11,-000.21,-000.18,-000.25,19.1,25.2,09.9,06.9,0671.7,31.1
2021-07-04T14:42:00Z,00000200,00000000,0000.85,0000.43,0000.30,-000.23,0000.19,-000.12,0000.17,0000.22,0000.24,19.1,25.2,09.8,06.8,0671.7,31.1
2021-07-04T14:43:00Z,00000200,00000000,0000.30,0000.41,0000.28,0000.47,0000.01,0000.07,0000.02,0000.13,-000.09,19.2,25.2,09.8,06.8,0671.7,31.1
2021-07-04T14:44:00Z,00000200,00000000,0001.08,0000.53,0000.24,0000.31,-000.01,0000.42,0000.21,0000.47,0000.27,19.1,25.2,09.8,06.8,0671.7,31.1
2021-07-04T14:45:00Z,00000200,00000000,0000.76,0000.69,0000.11,0000.00,-000.03,-000.09,0000.41,0000.06,0000.26,19.1,25.2,09.9,06.9,0671.7,31.1
2021-07-04T14:46:00Z,00000200,00000000,0000.38,0000.43,0000.38,0000.08,0000.09,-000.05,0000.00,-000.08,-000.13,19.1,25.2,09.9,06.8,0671.7,31.1
2021-07-04T14:47:00Z,00000200,00000000,0000.46,0000.74,0000.03,-000.15,-000.18,-000.01,-000.56,0000.07,-000.16,19.1,25.2,09.5,06.6,0671.6,31.1
2021-07-04T14:48:00Z,00000200,00000000,0000.50,0000.46,0000.21,-000.04,-000.09,0000.33,0000.23,-000.56,0000.19,19.1,25.2,09.5,06.6,0671.6,31.1
2021-07-04T14:49:00Z,00000200,00000000,0001.03,0000.43,0000.50,-000.02,-000.02,-000.11,0000.18,0000.53,0000.23,19.1,25.2,09.7,06.7,0671.7,31.1
2021-07-04T14:50:00Z,00000200,00000000,0000.40,0000.28,0000.11,0000.27,-000.01,-000.04,-000.23,-000.19,-000.41,19.1,25.2,09.3,06.5,0671.6,31.1
2021-07-04T14:51:00Z,00000200,00000000,0000.58,0000.32,0000.29,0000.84,0000.04,0000.18,0000.72,0000.45,0000.30,19.1,25.2,09.4,06.5,0671.7,31.1
2021-07-04T14:52:00Z,00000200,00000000,0001.10,0000.17,0000.20,0000.31,0000.24,0000.10,-000.14,0000.20,0000.08,19.2,25.2,09.5,06.6,0671.6,31.2
2021-07-04T14:53:00Z,00000200,00000000,0001.17,0000.71,0000.08,0000.40,0000.11,0000.09,0000.04,-000.13,-000.07,19.2,25.2,09.5,06.6,0671.6,31.2
2021-07-04T14:54:00Z,00000200,00000000,0000.49,0000.56,0000.37,0000.61,0000.20,-000.03,0000.40,0000.21,0000.16,19.3,25.3,09.3,06.4,0671.6,31.2
2021-07-04T14:55:00Z,00000200,00000000,0001.19,0000.66,0000.55,0000.09,0000.30,0000.20,-000.36,-000.23,0000.04,19.3,25.3,09.1,06.4,0671.6,31.2
2021-07-04T14:56:00Z,00000200,00000000,0000.35,0000.70,0000.52,0000.20,0000.03,0000.07,0000.30,0000.12,0000.25,19.4,25.3,09.3,06.4,0671.7,31.2
2021-07-04T14:57:00Z,00000200,40000000,,,,,,,0000.41,0000.39,0000.12,19.4,25.4,08.8,06.1,0671.6,31.2
2021-07-04T14:58:00Z,00000200,60000000,,,,,,,-000.53,-000.44,-000.15,19.2,25.5,09.2,06.3,0670.6,31.2
2021-07-04T14:59:00Z,00000200,20000000,,,,,,,0000.13,0000.24,-000.22,19.2,25.6,09.2,06.2,0670.6,31.2
